Skip Page Navigation
NASA JPL Caltech
NASA Logo - Jet Propulsion Laboratory + View the NASA Portal
+ Center for Near-Earth Object Studies
JPL Home Earth Solar System Stars & Galaxies Technology
JPL Solar System Dynamics
BODIES ORBITS EPHEMERIDES TOOLS PHYSICAL DATA DISCOVERY FAQ SITE MAP
JPL Small-Body Database Browser
Search: [ help ]  
392013 (2009 AL9)
Classification: Main-belt Asteroid          SPK-ID: 2392013
Ephemeris | Orbit Diagram | Orbital Elements | Mission Design | Physical Parameters | Discovery Circumstances | Close-Approach Data ]

[ show orbit diagram ]
Orbital Elements at Epoch 2459200.5 (2020-Dec-17.0) TDB
Reference: JPL 15 (heliocentric ecliptic J2000)
 Element Value Uncertainty (1-sigma)   Units 
e .2274102598574054 6.4584e-08  
a 2.616165248004562 2.7229e-08 au
q 2.021222429125932 1.6556e-07 au
i 15.16910095385981 7.2659e-06 deg
node 96.94434962552971 2.8965e-05 deg
peri 166.0866792562946 3.4712e-05 deg
M 153.3565261800874 2.2813e-05 deg
tp 2458542.090714521526
(2019-Feb-27.59071452)
9.3554e-05 TDB
period 1545.596712942677
4.23
2.413e-05
6.606e-08
d
yr
n .2329197500133088 3.6363e-09 deg/d
Q 3.211108066883193 3.3421e-08 au
  Orbit Determination Parameters
   # obs. used (total)      168  
   data-arc span      6726 days (18.41 yr)  
   first obs. used      2002-07-16  
   last obs. used      2020-12-14  
   planetary ephem.      DE431  
   SB-pert. ephem.      SB431-N16  
   condition code      0  
   norm. resid. RMS      .6012  
   source      ORB  
   producer      Otto Matic  
   solution date      2021-Feb-24 16:54:41  

Additional Information
 Earth MOID = 1.00648 au 
 Jupiter MOID = 1.90822 au 
 T_jup = 3.322 
[ hide covariance matrix ]
Orbital Elements at Epoch 2458066.5 (2017-Nov-09.0) TDB
Reference: JPL 15 (heliocentric ecliptic J2000)
 Element Value Uncertainty (1-sigma)   Units 
e .2277451332620577 6.4499e-08  
q 2.019785164309077 1.6537e-07 au
tp 2458542.601969805427
(2019-Feb-28.10196981)
9.3355e-05 TDB
node 96.95230864783674 2.8979e-05 deg
peri 166.1881106675853 3.4714e-05 deg
i 15.16697034204028 7.2642e-06 deg
  Orbit Determination Parameters
   # obs. used (total)      168  
   data-arc span      6726 days (18.41 yr)  
   first obs. used      2002-07-16  
   last obs. used      2020-12-14  
   planetary ephem.      DE431  
   SB-pert. ephem.      SB431-N16  
   condition code      0  
   norm. resid. RMS      .6012  
   source      ORB  
   producer      Otto Matic  
   solution date      2021-Feb-24 16:54:41  

Additional Information
 Jupiter MOID = 1.90822 au 
 T_jup = 3.322 
Orbit Covariance (6×6)
  e q tp node peri i
e 4.160140528019949E-15 -1.058393347219842E-14 2.41251273047126E-12 3.687247227296315E-14 3.433146694268928E-13 4.651537142966025E-15
q -1.058393347219842E-14 2.734706529841552E-14 -5.576370468322746E-12 -9.22650239402864E-14 -7.853268587053978E-13 -1.108842325593464E-14
tp 2.41251273047126E-12 -5.576370468322746E-12 8.71508393487939E-9 3.805379357521877E-11 1.830646437767731E-9 -2.979107540938499E-12
node 3.687247227296315E-14 -9.22650239402864E-14 3.805379357521877E-11 8.397927100473767E-10 -8.032000924650982E-10 4.748951381163749E-11
peri 3.433146694268928E-13 -7.853268587053978E-13 1.830646437767731E-9 -8.032000924650982E-10 1.205036112120633E-9 -4.652398076977325E-11
i 4.651537142966025E-15 -1.108842325593464E-14 -2.979107540938499E-12 4.748951381163749E-11 -4.652398076977325E-11 5.276815685722151E-11

Ephemeris | Orbit Diagram | Orbital Elements | Mission Design | Physical Parameters | Discovery Circumstances | Close-Approach Data ]

Physical Parameter Table
Parameter Symbol Value Units Sigma Reference Notes
absolute magnitude H 16.4   n/a MPO437604  
diameter diameter 1.380 km 0.261 urn:nasa:pds:neowise_diameters_albedos::2.0[mainbelt] (http://adsabs.harvard.edu/abs/2011ApJ...741...68M)  
geometric albedo albedo 0.233   0.119 urn:nasa:pds:neowise_diameters_albedos::2.0[mainbelt] (http://adsabs.harvard.edu/abs/2011ApJ...741...68M)  

392013 (2009 AL9)          Discovered 2009-Jan-02 by Mt. Lemmon Survey at Mount Lemmon
Reference: Last Updated: 2014-04-17

[ hide close-approach data ]
Close-Approach Data   ...sorted by Date/Time (TDB)
Date/Time (TDB) Time Uncertainty
(days_HH:MM)
Body Nominal Distance (au) Minimum Distance (au) Maximum Distance (au) V-relative (km/s) V-infinity (km/s) JD (TDB) Time Uncertainty (minutes) Semi-major axis (km) Semi-minor axis (km) range-LOV angle (deg) N-sigma BP Orbit Ref. Reference Modified
1907-Jan-03 08:24 00:05 Jupiter 1.99839347564173 1.99839065483802 1.9983962965645 3.71284927778086 3.59688008079129 2417578.850220302 4.55081609314878 805.750481539682 16.2851546739918 -80.5507669688897 1807569.84729632 T 15 CATAB v2.0f-lin.ifort 2021-Feb-24 16:54:42 2021-Feb-24 16:54
2071-Oct-17 16:11 00:02 Jupiter 1.98844885006457 1.98844741982213 1.98845028031311 3.06245633746803 2.92005065753334 2477767.174372736 2.39022762324494 332.68230044397 61.6445590701748 -80.8526347219245 2070715.77888849 T 15 CATAB v2.0f-lin.ifort 2021-Feb-24 16:54:42 2021-Feb-24 16:54
2131-Mar-02 04:28 00:05 Jupiter 1.97701394595164 1.97701143985545 1.97701645205773 3.14247866907145 3.00304872310574 2499451.686104618 4.97029743589049 354.549322791684 100.066206836763 -72.4107369876331 2110454.04383741 T 15 CATAB v2.0f-lin.ifort 2021-Feb-24 16:54:42 2021-Feb-24 16:54
2190-Jul-15 01:16 00:08 Jupiter 1.96515947532019 1.96515596405429 1.96516298659246 3.2183630527449 3.08152904736561 2521136.552896516 7.52240751359609 321.701005844611 150.48748972726 -62.4650719119571 2036846.29385908 T 15 CATAB v2.0f-lin.ifort 2021-Feb-24 16:54:42 2021-Feb-24 16:54

Alternate Designations
 2009 AL9 = 2010 GN65 
Ephemeris | Orbit Diagram | Orbital Elements | Mission Design | Physical Parameters | Discovery Circumstances | Close-Approach Data ]
ABOUT SSD CREDITS/AWARDS PRIVACY/COPYRIGHT GLOSSARY LINKS
FirstGov 2021-Feb-28 22:41 UT
(server date/time)  
NASA Home Page
Site Manager:   Ryan S. Park
Webmaster  Alan B. Chamberlin